Year,Month,Day,Hour,Minute,Value (Times are PST for temperature in C)
2010,12,13,13,14,9.20
2010,12,13,13,15,9.20
2010,12,13,13,16,9.20
2010,12,13,13,17,9.20
2010,12,13,13,18,9.20
2010,12,13,13,19,9.20
2010,12,13,13,20,9.20
2010,12,13,13,21,9.20
2010,12,13,13,22,9.20
2010,12,13,13,23,9.20
2010,12,13,13,24,9.20
2010,12,13,13,25,9.20
2010,12,13,13,26,9.30
2010,12,13,13,27,9.30
2010,12,13,13,28,9.30
2010,12,13,13,29,9.30
2010,12,13,13,30,9.30
2010,12,13,13,31,9.30
2010,12,13,13,32,9.30
2010,12,13,13,33,9.30
2010,12,13,13,34,9.30
2010,12,13,13,35,9.30
2010,12,13,13,36,9.30
2010,12,13,13,37,9.30
2010,12,13,13,38,9.30
2010,12,13,13,39,9.30
2010,12,13,13,40,9.30
2010,12,13,13,41,9.30
2010,12,13,13,42,9.30
2010,12,13,13,43,9.30
2010,12,13,13,44,9.30
2010,12,13,13,45,9.30
2010,12,13,13,46,9.30
2010,12,13,13,47,9.30
2010,12,13,13,48,9.30
2010,12,13,13,49,9.30
2010,12,13,13,50,9.30
2010,12,13,13,51,9.40
2010,12,13,13,52,9.40
2010,12,13,13,53,9.40
2010,12,13,13,54,9.40
2010,12,13,13,55,9.40
2010,12,13,13,56,9.40
2010,12,13,13,57,9.40
2010,12,13,13,58,9.40
2010,12,13,13,59,9.50
2010,12,13,14,00,9.50
2010,12,13,14,01,9.50
2010,12,13,14,02,9.50
2010,12,13,14,03,9.50
2010,12,13,14,04,9.50
2010,12,13,14,05,9.50
2010,12,13,14,06,9.50
2010,12,13,14,07,9.50
2010,12,13,14,08,9.50
2010,12,13,14,09,9.60
2010,12,13,14,10,9.60
2010,12,13,14,11,9.60
2010,12,13,14,12,9.60
2010,12,13,14,13,9.60
2010,12,13,14,14,9.60
2010,12,13,14,15,9.60
2010,12,13,14,16,9.60
2010,12,13,14,17,9.60
2010,12,13,14,18,9.60
2010,12,13,14,19,9.70
2010,12,13,14,20,9.70
2010,12,13,14,21,9.70
2010,12,13,14,22,9.70
2010,12,13,14,23,9.70
2010,12,13,14,24,9.70
2010,12,13,14,25,9.70
2010,12,13,14,26,9.80
2010,12,13,14,27,9.80
2010,12,13,14,28,9.80
2010,12,13,14,29,9.80
2010,12,13,14,30,9.80
2010,12,13,14,31,9.80
2010,12,13,14,32,9.90
2010,12,13,14,33,9.90
2010,12,13,14,34,9.90
2010,12,13,14,35,9.90
2010,12,13,14,36,9.90
2010,12,13,14,37,10.00
2010,12,13,14,38,10.00
2010,12,13,14,39,10.00
2010,12,13,14,40,10.00
2010,12,13,14,41,10.10
2010,12,13,14,42,10.10
2010,12,13,14,43,10.10
2010,12,13,14,44,10.10
2010,12,13,14,45,10.10
2010,12,13,14,46,10.10
2010,12,13,14,47,10.10
2010,12,13,14,48,10.10
2010,12,13,14,49,10.10
2010,12,13,14,50,10.10
2010,12,13,14,51,10.10
2010,12,13,14,52,10.10
2010,12,13,14,53,10.10
2010,12,13,14,54,10.10
2010,12,13,14,55,10.10
2010,12,13,14,56,10.10
2010,12,13,14,57,10.10
2010,12,13,14,58,10.10
2010,12,13,14,59,10.10
2010,12,13,15,00,10.10
2010,12,13,15,01,10.00
2010,12,13,15,02,10.00
2010,12,13,15,03,9.90
2010,12,13,15,04,9.90
2010,12,13,15,05,9.90
2010,12,13,15,06,9.90
2010,12,13,15,07,9.90
2010,12,13,15,08,9.90
2010,12,13,15,09,9.90
2010,12,13,15,10,9.90
2010,12,13,15,11,9.90
2010,12,13,15,12,9.90
2010,12,13,15,13,9.90
2010,12,13,15,14,9.90
2010,12,13,15,15,9.90
2010,12,13,15,16,9.90
2010,12,13,15,17,9.90
2010,12,13,15,18,9.90
2010,12,13,15,19,9.90
2010,12,13,15,20,9.90
2010,12,13,15,21,9.90
2010,12,13,15,22,9.90
2010,12,13,15,23,9.90
2010,12,13,15,24,9.90
2010,12,13,15,25,9.90
2010,12,13,15,26,9.90
2010,12,13,15,27,9.80
2010,12,13,15,28,9.80
2010,12,13,15,29,9.80
2010,12,13,15,30,9.80
2010,12,13,15,31,9.80
2010,12,13,15,32,9.80
2010,12,13,15,33,9.70
2010,12,13,15,34,9.70
2010,12,13,15,35,9.70
2010,12,13,15,36,9.70
2010,12,13,15,37,9.70
2010,12,13,15,38,9.60
2010,12,13,15,39,9.60
2010,12,13,15,40,9.60
2010,12,13,15,41,9.60
2010,12,13,15,42,9.60
2010,12,13,15,43,9.60
2010,12,13,15,44,9.60
2010,12,13,15,45,9.60
2010,12,13,15,46,9.50
2010,12,13,15,47,9.50
2010,12,13,15,48,9.50
2010,12,13,15,49,9.40
2010,12,13,15,50,9.40
2010,12,13,15,51,9.40
2010,12,13,15,52,9.40
2010,12,13,15,53,9.40
2010,12,13,15,54,9.30
2010,12,13,15,55,9.30
2010,12,13,15,56,9.30
2010,12,13,15,57,9.30
2010,12,13,15,58,9.30
2010,12,13,15,59,9.30
2010,12,13,16,00,9.30
2010,12,13,16,01,9.20
2010,12,13,16,02,9.20
2010,12,13,16,03,9.20
2010,12,13,16,04,9.20
2010,12,13,16,05,9.20
2010,12,13,16,06,9.20
2010,12,13,16,07,9.10
2010,12,13,16,08,9.10
2010,12,13,16,09,9.10
2010,12,13,16,10,9.10
2010,12,13,16,11,9.00
2010,12,13,16,12,9.00
2010,12,13,16,13,9.00
2010,12,13,16,14,8.90
2010,12,13,16,15,8.90
2010,12,13,16,16,8.90
2010,12,13,16,17,8.90
2010,12,13,16,18,8.90
2010,12,13,16,19,8.90
2010,12,13,16,20,8.90
2010,12,13,16,21,8.90
2010,12,13,16,22,8.90
2010,12,13,16,23,8.90
2010,12,13,16,24,8.90
2010,12,13,16,25,8.90
2010,12,13,16,26,8.90
2010,12,13,16,27,8.90
2010,12,13,16,28,8.90
2010,12,13,16,29,8.90
2010,12,13,16,30,8.90
2010,12,13,16,31,8.90
2010,12,13,16,32,8.90
2010,12,13,16,33,8.90
2010,12,13,16,34,8.90
2010,12,13,16,35,8.90
2010,12,13,16,36,8.90
2010,12,13,16,37,8.80
2010,12,13,16,38,8.80
2010,12,13,16,39,8.80
2010,12,13,16,40,8.80
2010,12,13,16,41,8.80
2010,12,13,16,42,8.80
2010,12,13,16,43,8.80
2010,12,13,16,44,8.80
2010,12,13,16,45,8.80
2010,12,13,16,46,8.90
2010,12,13,16,47,8.90
2010,12,13,16,48,8.90
2010,12,13,16,49,8.90
2010,12,13,16,50,8.90
2010,12,13,16,51,8.90
2010,12,13,16,52,8.90
2010,12,13,16,53,8.90
2010,12,13,16,54,8.90
2010,12,13,16,55,8.90
2010,12,13,16,56,8.90
2010,12,13,16,57,8.90
2010,12,13,16,58,8.90
2010,12,13,16,59,8.90
2010,12,13,17,00,8.90
2010,12,13,17,01,8.90
2010,12,13,17,02,8.90
2010,12,13,17,03,8.90
2010,12,13,17,04,8.90
2010,12,13,17,05,8.90
2010,12,13,17,06,8.90
2010,12,13,17,07,8.90
2010,12,13,17,08,8.90
2010,12,13,17,09,8.90
2010,12,13,17,10,8.90
2010,12,13,17,11,8.90
2010,12,13,17,12,8.90
2010,12,13,17,13,8.90
2010,12,13,17,14,8.90
2010,12,13,17,15,8.90
2010,12,13,17,16,8.90
2010,12,13,17,17,8.90
2010,12,13,17,18,8.90
2010,12,13,17,19,8.90
2010,12,13,17,20,8.90
2010,12,13,17,21,8.90
2010,12,13,17,22,8.90
2010,12,13,17,23,8.90
2010,12,13,17,24,8.90
2010,12,13,17,25,8.90
2010,12,13,17,26,8.90
2010,12,13,17,27,8.90
2010,12,13,17,28,8.90
2010,12,13,17,29,8.90
2010,12,13,17,30,8.90
2010,12,13,17,31,8.90
2010,12,13,17,32,8.90
2010,12,13,17,33,8.90
2010,12,13,17,34,8.90
2010,12,13,17,35,8.90
2010,12,13,17,36,8.90
2010,12,13,17,37,8.90
2010,12,13,17,38,8.90
2010,12,13,17,39,8.90
2010,12,13,17,40,8.90
2010,12,13,17,41,8.90
2010,12,13,17,42,8.90
2010,12,13,17,43,8.90
2010,12,13,17,44,8.90
2010,12,13,17,45,8.90
2010,12,13,17,46,8.90
2010,12,13,17,47,8.90
2010,12,13,17,48,8.90
2010,12,13,17,49,8.90
2010,12,13,17,50,8.90
2010,12,13,17,51,8.90
2010,12,13,17,52,8.80
2010,12,13,17,53,8.80
2010,12,13,17,54,8.80
2010,12,13,17,55,8.80
2010,12,13,17,56,8.80
2010,12,13,17,57,8.80
2010,12,13,17,58,8.80
2010,12,13,17,59,8.80
2010,12,13,18,00,8.80
2010,12,13,18,01,8.80
2010,12,13,18,02,8.80
2010,12,13,18,03,8.80
2010,12,13,18,04,8.80
2010,12,13,18,05,8.80
2010,12,13,18,06,8.80
2010,12,13,18,07,8.80
2010,12,13,18,08,8.80
2010,12,13,18,09,8.80
2010,12,13,18,10,8.70
2010,12,13,18,11,8.70
2010,12,13,18,12,8.70
2010,12,13,18,13,8.70
2010,12,13,18,14,8.70
2010,12,13,18,15,8.70
2010,12,13,18,16,8.70
2010,12,13,18,17,8.70
2010,12,13,18,18,8.70
2010,12,13,18,19,8.70
2010,12,13,18,20,8.70
2010,12,13,18,21,8.70
2010,12,13,18,22,8.70
2010,12,13,18,23,8.70
2010,12,13,18,24,8.70
2010,12,13,18,25,8.70
2010,12,13,18,26,8.70
2010,12,13,18,27,8.70
2010,12,13,18,28,8.70
2010,12,13,18,29,8.70
2010,12,13,18,30,8.70
2010,12,13,18,31,8.60
2010,12,13,18,32,8.60
2010,12,13,18,33,8.60
2010,12,13,18,34,8.60
2010,12,13,18,35,8.60
2010,12,13,18,36,8.60
2010,12,13,18,37,8.60
2010,12,13,18,38,8.60
2010,12,13,18,39,8.70
2010,12,13,18,40,8.70
2010,12,13,18,41,8.70
2010,12,13,18,42,8.60
2010,12,13,18,43,8.60
2010,12,13,18,44,8.60
2010,12,13,18,45,8.60
2010,12,13,18,46,8.60
2010,12,13,18,47,8.60
2010,12,13,18,48,8.60
2010,12,13,18,49,8.60
2010,12,13,18,50,8.60
2010,12,13,18,51,8.60
2010,12,13,18,52,8.60
2010,12,13,18,53,8.60
2010,12,13,18,54,8.60
2010,12,13,18,55,8.60
2010,12,13,18,56,8.60
2010,12,13,18,57,8.70
2010,12,13,18,58,8.70
2010,12,13,18,59,8.70
2010,12,13,19,00,8.70
2010,12,13,19,01,8.70
2010,12,13,19,02,8.70
2010,12,13,19,03,8.70
2010,12,13,19,04,8.70
2010,12,13,19,05,8.70
2010,12,13,19,06,8.70
2010,12,13,19,07,8.60
2010,12,13,19,08,8.60
2010,12,13,19,09,8.60
2010,12,13,19,10,8.60
2010,12,13,19,11,8.60
2010,12,13,19,12,8.60
2010,12,13,19,13,8.60
2010,12,13,19,14,8.60
2010,12,13,19,15,8.60
2010,12,13,19,16,8.60
2010,12,13,19,17,8.60
2010,12,13,19,18,8.60
2010,12,13,19,19,8.60
2010,12,13,19,20,8.60
2010,12,13,19,21,8.60
2010,12,13,19,22,8.60
2010,12,13,19,23,8.60
2010,12,13,19,24,8.60
2010,12,13,19,25,8.60
2010,12,13,19,26,8.50
2010,12,13,19,27,8.50
2010,12,13,19,28,8.40
2010,12,13,19,29,8.40
2010,12,13,19,30,8.40
2010,12,13,19,31,8.40
2010,12,13,19,32,8.30
2010,12,13,19,33,8.30
2010,12,13,19,34,8.30
2010,12,13,19,35,8.30
2010,12,13,19,36,8.30
2010,12,13,19,37,8.20
2010,12,13,19,38,8.20
2010,12,13,19,39,8.20
2010,12,13,19,40,8.20
2010,12,13,19,41,8.20
2010,12,13,19,42,8.30
2010,12,13,19,43,8.30
2010,12,13,19,44,8.30
2010,12,13,19,45,8.30
2010,12,13,19,46,8.30
2010,12,13,19,47,8.40
2010,12,13,19,48,8.40
2010,12,13,19,49,8.40
2010,12,13,19,50,8.40
2010,12,13,19,51,8.40
2010,12,13,19,52,8.40
2010,12,13,19,53,8.50
2010,12,13,19,54,8.60
2010,12,13,19,55,8.60
2010,12,13,19,56,8.70
2010,12,13,19,57,8.70
2010,12,13,19,58,8.80
2010,12,13,19,59,8.90
2010,12,13,20,00,9.00
2010,12,13,20,01,9.10
2010,12,13,20,02,9.10
2010,12,13,20,03,9.20
2010,12,13,20,04,9.20
2010,12,13,20,05,9.20
2010,12,13,20,06,9.20
2010,12,13,20,07,9.30
2010,12,13,20,08,9.30
2010,12,13,20,09,9.30
2010,12,13,20,10,9.30
2010,12,13,20,11,9.30
2010,12,13,20,12,9.30
2010,12,13,20,13,9.40
2010,12,13,20,14,9.40
2010,12,13,20,15,9.40
2010,12,13,20,16,9.40
2010,12,13,20,17,9.40
2010,12,13,20,18,9.40
2010,12,13,20,19,9.40
2010,12,13,20,20,9.40
2010,12,13,20,21,9.40
2010,12,13,20,22,9.40
2010,12,13,20,23,9.40
2010,12,13,20,24,9.40
2010,12,13,20,25,9.40
2010,12,13,20,26,9.40
2010,12,13,20,27,9.40
2010,12,13,20,28,9.40
2010,12,13,20,29,9.40
2010,12,13,20,30,9.40
2010,12,13,20,31,9.40
2010,12,13,20,32,9.40
2010,12,13,20,33,9.40
2010,12,13,20,34,9.40
2010,12,13,20,35,9.40
2010,12,13,20,36,9.40
2010,12,13,20,37,9.40
2010,12,13,20,38,9.40
2010,12,13,20,39,9.40
2010,12,13,20,40,9.40
2010,12,13,20,41,9.40
2010,12,13,20,42,9.40
2010,12,13,20,43,9.40
2010,12,13,20,44,9.40
2010,12,13,20,45,9.40
2010,12,13,20,46,9.40
2010,12,13,20,47,9.40
2010,12,13,20,48,9.40
2010,12,13,20,49,9.40
2010,12,13,20,50,9.40
2010,12,13,20,51,9.40
2010,12,13,20,52,9.30
2010,12,13,20,53,9.30
2010,12,13,20,54,9.30
2010,12,13,20,55,9.30
2010,12,13,20,56,9.30
2010,12,13,20,57,9.30
2010,12,13,20,58,9.30
2010,12,13,20,59,9.30
2010,12,13,21,00,9.20
2010,12,13,21,01,9.20
2010,12,13,21,02,9.20
2010,12,13,21,03,9.20
2010,12,13,21,04,9.20
2010,12,13,21,05,9.20
2010,12,13,21,06,9.10
2010,12,13,21,07,9.10
2010,12,13,21,08,9.10
2010,12,13,21,09,9.10
2010,12,13,21,10,9.10
2010,12,13,21,11,9.10
2010,12,13,21,12,9.10
2010,12,13,21,13,9.00
2010,12,13,21,14,9.00
2010,12,13,21,15,9.00
2010,12,13,21,16,9.00
2010,12,13,21,17,9.00
2010,12,13,21,18,9.00
2010,12,13,21,19,8.90
2010,12,13,21,20,8.90
2010,12,13,21,21,8.90
2010,12,13,21,22,8.90
2010,12,13,21,23,8.90
2010,12,13,21,24,8.90
2010,12,13,21,25,8.90
2010,12,13,21,26,8.90
2010,12,13,21,27,8.90
2010,12,13,21,28,8.90
2010,12,13,21,29,8.90
2010,12,13,21,30,8.90
2010,12,13,21,31,8.90
2010,12,13,21,32,8.90
2010,12,13,21,33,8.90
2010,12,13,21,34,8.90
2010,12,13,21,35,8.90
2010,12,13,21,36,8.90
2010,12,13,21,37,8.90
2010,12,13,21,38,8.90
2010,12,13,21,39,8.90
2010,12,13,21,40,8.90
2010,12,13,21,41,8.90
2010,12,13,21,42,8.90
2010,12,13,21,43,8.90
2010,12,13,21,44,8.90
2010,12,13,21,45,8.90
2010,12,13,21,46,8.90
2010,12,13,21,47,8.90
2010,12,13,21,48,8.90
2010,12,13,21,49,8.90
2010,12,13,21,50,8.90
2010,12,13,21,51,8.90
2010,12,13,21,52,8.90
2010,12,13,21,53,8.90
2010,12,13,21,54,8.90
2010,12,13,21,55,8.80
2010,12,13,21,56,8.80
2010,12,13,21,57,8.80
2010,12,13,21,58,8.80
2010,12,13,21,59,8.80
2010,12,13,22,00,8.80
2010,12,13,22,01,8.80
2010,12,13,22,02,8.80
2010,12,13,22,03,8.80
2010,12,13,22,04,8.80
2010,12,13,22,05,8.80
2010,12,13,22,06,8.80
2010,12,13,22,07,8.80
2010,12,13,22,08,8.80
2010,12,13,22,09,8.80
2010,12,13,22,10,8.80
2010,12,13,22,11,8.80
2010,12,13,22,12,8.90
2010,12,13,22,13,8.90
2010,12,13,22,14,8.90
2010,12,13,22,15,8.90
2010,12,13,22,16,8.90
2010,12,13,22,17,8.90
2010,12,13,22,18,8.90
2010,12,13,22,19,8.90
2010,12,13,22,20,8.90
2010,12,13,22,21,8.90
2010,12,13,22,22,9.00
2010,12,13,22,23,9.00
2010,12,13,22,24,9.10
2010,12,13,22,25,9.10
2010,12,13,22,26,9.10
2010,12,13,22,27,9.10
2010,12,13,22,28,9.10
2010,12,13,22,29,9.10
2010,12,13,22,30,9.20
2010,12,13,22,31,9.20
2010,12,13,22,32,9.20
2010,12,13,22,33,9.20
2010,12,13,22,34,9.30
2010,12,13,22,35,9.30
2010,12,13,22,36,9.30
2010,12,13,22,37,9.30
2010,12,13,22,38,9.30
2010,12,13,22,39,9.30
2010,12,13,22,40,9.30
2010,12,13,22,41,9.30
2010,12,13,22,42,9.30
2010,12,13,22,43,9.30
2010,12,13,22,44,9.40
2010,12,13,22,45,9.40
2010,12,13,22,46,9.40
2010,12,13,22,47,9.40
2010,12,13,22,48,9.40
2010,12,13,22,49,9.40
2010,12,13,22,50,9.40
2010,12,13,22,51,9.40
2010,12,13,22,52,9.40
2010,12,13,22,53,9.40
2010,12,13,22,54,9.40
2010,12,13,22,55,9.40
2010,12,13,22,56,9.40
2010,12,13,22,57,9.40
2010,12,13,22,58,9.40
2010,12,13,22,59,9.40
2010,12,13,23,00,9.40
2010,12,13,23,01,9.40
2010,12,13,23,02,9.40
2010,12,13,23,03,9.40
2010,12,13,23,04,9.40
2010,12,13,23,05,9.40
2010,12,13,23,06,9.40
2010,12,13,23,07,9.40
2010,12,13,23,08,9.40
2010,12,13,23,09,9.40
2010,12,13,23,10,9.40
2010,12,13,23,11,9.40
2010,12,13,23,12,9.40
2010,12,13,23,13,9.40
2010,12,13,23,14,9.40
2010,12,13,23,15,9.40
2010,12,13,23,16,9.40
2010,12,13,23,17,9.40
2010,12,13,23,18,9.40
2010,12,13,23,19,9.40
2010,12,13,23,20,9.40
2010,12,13,23,21,9.40
2010,12,13,23,22,9.50
2010,12,13,23,23,9.50
2010,12,13,23,24,9.50
2010,12,13,23,25,9.50
2010,12,13,23,26,9.60
2010,12,13,23,27,9.60
2010,12,13,23,28,9.60
2010,12,13,23,29,9.60
2010,12,13,23,30,9.60
2010,12,13,23,31,9.60
2010,12,13,23,32,9.60
2010,12,13,23,33,9.60
2010,12,13,23,34,9.60
2010,12,13,23,35,9.60
2010,12,13,23,36,9.60
2010,12,13,23,37,9.60
2010,12,13,23,38,9.60
2010,12,13,23,39,9.60
2010,12,13,23,40,9.60
2010,12,13,23,41,9.60
2010,12,13,23,42,9.60
2010,12,13,23,43,9.60
2010,12,13,23,44,9.60
2010,12,13,23,45,9.50
2010,12,13,23,46,9.50
2010,12,13,23,47,9.50
2010,12,13,23,48,9.50
2010,12,13,23,49,9.50
2010,12,13,23,50,9.40
2010,12,13,23,51,9.40
2010,12,13,23,52,9.40
2010,12,13,23,53,9.40
2010,12,13,23,54,9.40
2010,12,13,23,55,9.40
2010,12,13,23,56,9.40
2010,12,13,23,57,9.40
2010,12,13,23,58,9.40
2010,12,13,23,59,9.40
